Bodensee (Kressbronn): 6,1°C  -  Teich der Wetterzentrale Bad Schussenried: 5,6°C |  Schneehöhe Kreuzthal-Steinberg (930 m ü. NN): 8 cm   
01.04.2020Höhe
ü. NN
ZeitTemperatur (°C)Nieder-
schlag
Luft-
feuchte
Luft-
druck
Wind
StationaktuellMinimumMaximumaktuellMaximum
Aldingen654 m07:56-4,9-5,7 (08:00)-0,3 (16:02)0,0 l/m²84%1023,30,0 km/h (0 Bft) W29,6 km/h (5 Bft) W (14:48)
Allmendingen541 m07:55-5,9-6,7 (07:05)-2,1 (15:10)0,0 l/m²89%1023,03,2 km/h (1 Bft) O-SO35,4 km/h (5 Bft) O (15:35)
Altshausen574 m07:55-3,5-4,1 (06:33)-1,1 (00:16)0,0 l/m²67%1020,56,4 km/h (2 Bft) N-NW12,9 km/h (3 Bft) N-NO (07:34)
Amstetten-Reutti663 m07:55-4,3-4,7 (07:05)-1,5 (16:55)0,0 l/m²87%1022,71,6 km/h (1 Bft) W-SW48,3 km/h (6 Bft) W (15:55)
Amtzell-Grenis677 m07:55-2,9-4,1 (06:05)-1,4 (00:00)0,0 l/m²60%1022,78,0 km/h (2 Bft) N-NO12,9 km/h (3 Bft) N (06:45)
Aulendorf570 m07:55-2,6-3,2 (07:05)-0,5 (00:00)0,0 l/m²72%1021,58,0 km/h (2 Bft) NO17,7 km/h (3 Bft) O-NO (07:06)
Bad Krozingen233 m07:55-1,1-2,3 (06:50)3,7 (16:05)0,0 l/m²75%1023,56,9 km/h (2 Bft) SW38,1 km/h (5 Bft) N (17:05)
Bad Saulgau595 m07:55-4,4-5,2 (08:00)-1,9 (15:00)0,0 l/m²89%1021,44,8 km/h (1 Bft) S-SO25,7 km/h (4 Bft) S (11:35)
Bad Saulgau, Mannsgrab588 m07:53-3,6-6,1 (05:34)-1,7 (00:17)0,0 l/m²84%1023,80,0 km/h (0 Bft) N0,0 km/h (0 Bft) N (00:00)
Bad Saulgau-Lampertsweiler627 m07:55-3,6-4,8 (06:15)0,2 (00:00)0,0 l/m²83%1024,517,7 km/h (3 Bft) N-NW22,5 km/h (4 Bft) N-NW (01:15)
Bad Schussenried572 m07:55-3,2-4,4 (07:30)-1,1 (00:00)0,0 l/m²88%1021,00,0 km/h (0 Bft) NO9,7 km/h (2 Bft) NO (03:15)
Bergatreute615 m07:55-3,1-4,1 (07:20)0,0 (00:00)0,0 l/m²88%1021,58,0 km/h (2 Bft) NO17,7 km/h (3 Bft) O (01:55)
Biberach (Riss), Boehringer533 m08:00-3,8-4,4 (07:00)-1,1 (00:30)0,0 l/m²89%1021,87,2 km/h (2 Bft) N-NO12,2 km/h (3 Bft) N-NO (08:00)
Biberach (Riss), Realschule553 m07:55-3,9-4,3 (07:15)-0,3 (00:00)0,0 l/m²88%1023,612,9 km/h (3 Bft) N12,9 km/h (3 Bft) N (06:05)
Burgrieden523 m07:55-4,1-4,4 (07:30)-0,4 (00:00)0,0 l/m²83%1022,63,2 km/h (1 Bft) O-NO11,3 km/h (2 Bft) O-NO (07:40)
Burgrieden-Hochstetten510 m07:50-4,0-4,8 (08:00)-0,9 (15:40)0,0 l/m²90%1023,06,4 km/h (2 Bft) N-NO25,7 km/h (4 Bft) NO (12:55)
Ebersbach579 m07:55-3,2-4,0 (07:15)-0,1 (00:00)0,0 l/m²87%1023,08,0 km/h (2 Bft) N16,1 km/h (3 Bft) NO (01:25)
Ebersbach-Boos605 m07:55-3,8-4,7 (07:15)-0,1 (00:00)0,0 l/m²90%1022,714,5 km/h (3 Bft) O-NO22,5 km/h (4 Bft) O (01:00)
Ebersbach-Menzenweiler661 m07:55-3,5-3,9 (06:20)-0,6 (00:00)0,0 l/m²88%1022,716,1 km/h (3 Bft) N-NO24,1 km/h (4 Bft) O-NO (01:05)
Ehingen535 m01:10-2,5-2,5 (01:10)-1,3 (00:05)0,0 l/m²70%1025,40,0 km/h (0 Bft) N-NO5,0 km/h (1 Bft) N-NO (00:15)
Erlenmoos645 m07:55-4,3-4,5 (07:40)-0,9 (00:00)0,0 l/m²87%1022,63,2 km/h (1 Bft) NO12,9 km/h (3 Bft) O-NO (01:35)
Ertingen569 m07:55-2,8-3,7 (06:55)-0,6 (00:00)0,0 l/m²84%1022,69,7 km/h (2 Bft) N-NO16,1 km/h (3 Bft) N-NO (04:10)
Friedrichshafen405 m07:55-1,1-1,9 (07:00)0,9 (13:30)0,0 l/m²79%1022,614,5 km/h (3 Bft) N27,4 km/h (4 Bft) NO (15:10)
Günzburg443 m07:55-3,8-5,3 (07:20)-1,1 (00:00)0,0 l/m²89%1020,80,0 km/h (0 Bft) NO0,0 km/h (0 Bft) NO (00:00)
Hochdorf-Appendorf537 m07:55-4,3-6,3 (07:30)-1,7 (00:15)0,0 l/m²68%1022,56,4 km/h (2 Bft) N-NO14,5 km/h (3 Bft) N-NW (03:20)
Höchsten802 m07:55-4,1-4,7 (07:10)-1,4 (00:00)0,0 l/m²84%1020,517,7 km/h (3 Bft) O-NO25,7 km/h (4 Bft) NO (02:45)
Horgenzell618 m07:55-1,9-1,9 (03:45)-0,6 (00:05)0,0 l/m²76%1020,14,8 km/h (1 Bft) N-NO19,3 km/h (3 Bft) N-NO (00:50)
Hoßkirch632 m07:55-5,9-6,7 (07:25)-1,0 (00:15)0,0 l/m²91%1021,54,8 km/h (1 Bft) SW14,5 km/h (3 Bft) O-NO (00:20)
Isny, Am Dreifingerbach695 m07:55-3,3-6,2 (06:25)0,1 (01:00)0,0 l/m²83%1021,34,8 km/h (1 Bft) NW14,5 km/h (3 Bft) O-NO (01:05)
Isny, Weidachweg706 m07:55-4,7-5,3 (07:10)0,3 (00:25)0,0 l/m²78%1023,60,0 km/h (0 Bft) W12,9 km/h (3 Bft) W (00:10)
Kappel-Grafenhausen163 m07:50-1,9-2,1 (07:10)3,3 (14:55)0,0 l/m²82%1021,26,4 km/h (2 Bft) N30,6 km/h (5 Bft) N-NO (16:55)
Kißlegg-Staibshof709 m07:55-3,3-3,8 (07:10)-0,9 (00:00)0,0 l/m²82%1022,30,0 km/h (0 Bft) NO14,5 km/h (3 Bft) O (01:50)
Kressbronn398 m07:56-2,7-2,8 (07:20)1,4 (00:00)0,0 l/m²81%1021,33,2 km/h (1 Bft) NO22,5 km/h (4 Bft) NO (00:54)
Kreuzthal-Steinberg-Alpe930 m07:50-3,7-4,9 (06:50)-2,5 (00:00)0,0 l/m²85%1022,03,2 km/h (1 Bft) O-NO22,0 km/h (4 Bft) W-NW (00:10)
Kreuzthal-Steinberggipfel1040 m07:50-2,5-4,0 (02:20)-2,2 (07:50)-69%1022,09,4 km/h (2 Bft) O37,1 km/h (5 Bft) O-SO (00:10)
Kristberg im Montafon (AT)1425 m07:55-5,8-6,6 (04:51)-5,3 (00:40)0,0 l/m²50%1026,30,0 km/h (0 Bft) N10,1 km/h (2 Bft) NO (01:47)
Laupheim500 m07:55-2,9-4,0 (06:35)0,0 (00:00)0,0 l/m²82%1022,18,0 km/h (2 Bft) O-NO9,7 km/h (2 Bft) O-SO (00:20)
Leutkirch-Heggelbach670 m07:55-4,6-4,9 (07:00)-2,6 (00:30)0,0 l/m²89%1021,50,0 km/h (0 Bft) N-NO8,0 km/h (2 Bft) N-NO (03:30)
Lindau-Insel420 m07:55-1,1-1,8 (07:25)1,8 (14:55)0,0 l/m²73%1021,70,0 km/h (0 Bft) O-NO29,0 km/h (5 Bft) NO (17:05)
Lindau-Stadt412 m07:55-1,6-2,4 (08:00)1,2 (14:55)0,0 l/m²74%1021,83,2 km/h (1 Bft) N33,8 km/h (5 Bft) N-NO (15:40)
Maierhöfen im Allgäu733 m07:55-4,6-5,9 (07:30)-1,2 (01:35)0,0 l/m²86%1021,90,0 km/h (0 Bft) NW25,7 km/h (4 Bft) O-SO (02:05)
Maselheim543 m07:55-4,8-5,4 (08:00)-2,3 (13:20)0,0 l/m²87%1023,01,6 km/h (1 Bft) N24,1 km/h (4 Bft) O-NO (15:20)
Maselheim-Sulmingen548 m07:55-4,8-5,7 (07:15)-2,2 (15:15)0,0 l/m²91%1024,20,0 km/h (0 Bft) NW20,9 km/h (4 Bft) N-NO (12:15)
Mietingen-Baltringen528 m07:55-4,2-5,0 (06:35)-1,3 (00:45)0,0 l/m²87%1024,50,0 km/h (0 Bft) O-NO4,8 km/h (1 Bft) N-NO (01:20)
Mindelheim-Apfeltrach620 m07:56-6,2-6,3 (07:40)-2,7 (00:00)0,0 l/m²89%1024,00,0 km/h (0 Bft) NO0,0 km/h (0 Bft) O-NO (00:00)
Mittelbiberach577 m07:56-3,7-4,6 (06:56)-1,0 (00:16)0,0 l/m²83%1023,81,6 km/h (1 Bft) N12,8 km/h (3 Bft) NO (05:56)
Neresheim552 m07:00-7,3-7,3 (07:00)-2,0 (00:00)0,0 l/m²91%1021,70,0 km/h (0 Bft) O4,0 km/h (1 Bft) NO (01:00)
Neukirch570 m07:55-2,7-3,4 (07:15)-0,9 (14:35)0,0 l/m²81%1021,96,4 km/h (2 Bft) N-NO37,0 km/h (5 Bft) N-NO (11:55)
Ochsenhausen, Birkenstraße613 m07:55-5,7-5,7 (08:00)-2,2 (12:50)0,0 l/m²83%1023,20,0 km/h (0 Bft) O-SO1,6 km/h (1 Bft) SW (08:00)
Ochsenhausen, Unt. Wiesen575 m07:55-5,1-5,7 (06:15)-2,4 (00:00)0,0 l/m²88%1024,40,0 km/h (0 Bft) NO4,8 km/h (1 Bft) NO (00:00)
Opfenbach-Göritz561 m07:56-5,2-5,8 (07:19)-2,8 (00:00)0,0 l/m²79%1019,90,0 km/h (0 Bft) N-NO6,5 km/h (2 Bft) O-NO (00:18)
Ostrach619 m07:55-3,3-3,8 (04:15)-0,6 (00:00)0,0 l/m²89%1021,04,8 km/h (1 Bft) N12,9 km/h (3 Bft) N-NW (06:30)
Ravensburg, Goethestraße428 m07:55-1,9-2,2 (07:20)1,3 (00:00)0,0 l/m²82%1021,712,9 km/h (3 Bft) O-NO17,7 km/h (3 Bft) NO (06:45)
Ravensburg-Wernsreute511 m07:55-2,3-3,4 (07:00)0,0 (15:50)0,0 l/m²82%1024,820,9 km/h (4 Bft) N-NO35,4 km/h (5 Bft) N-NO (11:45)
Reichenbach an der Fils343 m07:55-2,9-2,9 (07:50)1,0 (00:00)0,0 l/m²79%1025,20,0 km/h (0 Bft) SO12,9 km/h (3 Bft) O-SO (05:10)
Riedlingen530 m07:55-2,9-3,6 (07:05)-1,0 (00:00)0,0 l/m²80%1022,80,0 km/h (0 Bft) O-NO0,0 km/h (0 Bft) N (00:00)
Rißtissen489 m07:55-2,8-3,5 (07:10)-0,2 (00:00)0,0 l/m²87%1020,51,6 km/h (1 Bft) O-NO8,0 km/h (2 Bft) O-NO (03:30)
Rottweil-Hausen681 m07:54-4,1-4,7 (06:55)-1,9 (00:00)0,0 l/m²85%1024,06,5 km/h (2 Bft) W-NW9,7 km/h (2 Bft) S-SW (07:27)
Schemmerhofen520 m07:55-2,9-3,3 (07:35)2,7 (00:00)0,0 l/m²87%1021,98,0 km/h (2 Bft) NO8,0 km/h (2 Bft) NO (07:55)
Silbertal im Montafon (AT)884 m07:56-4,3-4,7 (07:15)-1,6 (00:01)0,0 l/m²85%1026,10,0 km/h (0 Bft) O-NO0,0 km/h (0 Bft) O-NO (00:00)
Tettnang466 m07:54-2,4-2,4 (07:48)1,0 (00:00)0,0 l/m²77%1021,84,8 km/h (1 Bft) W-NW16,2 km/h (3 Bft) O-SO (01:07)
Tuttlingen648 m07:46-4,0-4,5 (06:31)-2,1 (00:01)0,0 l/m²78%1023,20,0 km/h (0 Bft) N-NO5,2 km/h (1 Bft) W-SW (03:26)
Tuttlingen, Möhringer-Vorstadt711 m07:55-4,7-5,1 (08:00)-2,4 (16:05)0,0 l/m²85%1022,70,0 km/h (0 Bft) NO25,7 km/h (4 Bft) N-NW (12:35)
Ummendorf547 m07:55-3,8-5,1 (07:20)-0,7 (00:10)0,0 l/m²68%1023,80,0 km/h (0 Bft) O-NO16,1 km/h (3 Bft) O (01:05)
Ummendorf-Fischbach558 m07:55-4,8-5,4 (06:15)-1,9 (01:25)0,0 l/m²70%1023,61,6 km/h (1 Bft) NO6,4 km/h (2 Bft) O-NO (07:15)
Waldburg707 m07:55-2,9-3,5 (06:50)-0,8 (00:00)0,0 l/m²78%1021,58,0 km/h (2 Bft) N19,3 km/h (3 Bft) N (02:35)
Waltenhofen im Allgäu720 m07:50-7,4-7,9 (07:15)-2,2 (01:05)0,0 l/m²91%1022,20,0 km/h (0 Bft) W17,7 km/h (3 Bft) W (11:50)
Wangen, Südring548 m07:56-2,8-4,2 (06:51)-0,3 (00:00)0,0 l/m²81%1021,56,5 km/h (2 Bft) N13,0 km/h (3 Bft) NO (01:25)
Warthausen-Birkenhard581 m07:54-3,9-4,4 (06:32)-1,2 (00:00)0,0 l/m²86%1023,510,1 km/h (2 Bft) N-NO13,7 km/h (3 Bft) NO (06:13)
Winterlingen785 m07:45-4,7-5,6 (06:30)-2,8 (01:00)0,0 l/m²79%1021,81,4 km/h (1 Bft) N3,6 km/h (1 Bft) NO (00:55)

Werbung
niederschlagsdatenbank | info | login - erfassung

Sollten Sie Interesse haben, an der Niederschlagsdatenbank teilzunehmen, finden Sie > hier < weitere Informationen.

Niederschlagsdaten der Station Stuttgart-Möhringen - Glashütter Weg 10

Karl-Heinz Böhm

Niederschlagsstation aufgenommen ins Stationsnetz der Wetterwarte Süd am 04.11.2012
Monat: .
Anmerkung:0,0 = nicht messbarer Niederschlag
 -  = kein Niederschlag

Stationsdaten

Höhe

430 m

Lage

Auf Google Maps ansehen

Beschreibung

Die Messstation liegt in einer ebenen, bebauten Wohnlage mit 2-3 Stockwerke, die in allen Richtungen ziemlich offen mit der vorherrschenden freien Windlage von Südwesten ist.
Meine Koordinaten sind ~ 48.72°N - 9.15°E.
< März 2017Mai 2017 >

April 2017

TagNiederschlagBemerkung
01.-
Teils Bewölkung im Sonnen Aufgang, +8°C, 69%,->+19,6°C, 1009 hPa. -> kaum N Wind
02.-
Dichte Bewölkung mit Sonne, + 8°C, 79%-> + 16°C, 1016 hPa.,-> NW
03.-
Dichte Bewölkung mit leichter Sonne, + 8°C, 90%-> +17°C, 1021 hPa.,-> NW
04.-
Teils Bewölkung im Sonnen Aufgang, +6°C, 90%,->+15,5°C, 1019 hPa. -> kaum N Wind
05.-
Leichte Schleier Bewölkung im Sonnen Aufgang, + 4°C, 89%-> +15°C, 1021 hPa.,-> N
06.-
Leichte Schleier Bewölkung kühler Sonnen Aufgang,+4,5°C, 68%->+11°C,1022 hPa.,->N
07.-
Frost u. Kalt, Dichte Bewölkung, +2°C, 83%-> + 14°C, 1023 hPa.,-> NW
08.-
Klar im Sonnen Aufgang, +2,5°C, 88%-> + 18°C,1023hPa.,-> N
09.-
Klar im Sonnen Aufgang, +7,5°C, 88%-> + 22°C,1022hPa.,-> SW
10.-
Klar im Sonnen Aufgang, +9,5°C, 75%-> + 24°C,1017hPa.,-> N
11.-
Dichte Bewölkung mit leichter Sonne, +6,5°C,71%-> +13°C, 1022 hPa.,-> NW
12.-
Dichte Bewölkung mit leichter Sonne, +4,5°C,69%-> +20°C, 1020 hPa.,-> N
13.-
Dichte Bewölkung mit leichter Sonne, +9,5°C,71%-> +14°C, 1022 hPa.,-> W
14.-
Dichte Bewölkung mit kaum Sonne, +8,5°C,65%-> +13°C, 1015 hPa.,-> N
15.-
Dichte Bewölkung mit kaum Sonne, +9°C,73%-> +13,5°C, 1014 hPa.,-> SO
16.2,5
Alles Grau, dichte Bewölkung, +6°C,90%-> +9,5°C, 1017 hPa.,-> S
17.0,5
Alles Grau,Bewölkung,Regen +5,5°C,86%->+9°C, 1015 hPa.,-> N -Sau-Wetter
Regen
18.5,5
FrostikKalt,dichte Bewölkung,Schneeregen +1°C,91%-> +5,5°C, 1018 hPa.,-> N -
Regen Schneeregen
19.5,0
Alles Grau,Schneeregen +0,5°C,94%-> +5°C, 1027 hPa.,-> Böhiger N Wind
Schneeregen Graupel
20.2,0
Frost u. Klar im Sonnen Aufgang, -2,5°C, 90%-> + 9°C,1030hPa.,-> N
21.-
Frostik Kalt,dichte Bewölkung, +0,5°C, 71%-> + 15°C, 1030 hPa.,-> N
22.-
Dichte Bewölkung, +0,5°C, 71%-> + 15°C, 1030 hPa.,-> N
23.-
Dichte Bewölkung mit leichter Sonne, +4°C,71%-> + --°C, 1023 hPa.,-> N
24.-
25.-
26.-
27.-
28.-
29.-
30.-
Gesamt:15,5 
Die Spalten "Tag" und "Niederschlag" lassen sich durch Klicken auf den Spaltenkopf sortieren.
Die Angaben sind in l/m².

< März 2017Mai 2017 >


Monats- und Jahresniederschlag


Wetterbeobachtungen Legende:

  • Regen
  • Nieselregen
  • Schneeregen
  • Schnee
  • Graupel
  • Eiskörner
  • Hagel
  • Bodennebel
  • Gewitter
  • Nebelnässe
  • Schneegriesel

Grafische Darstellung der Niederschläge der Station Stuttgart-Möhringen April 2017

 
wetterstationen
wetterstationen
- derzeit 83 Stationen
niederschlagsdatenbank
wetterstationen
- kartographische Darstellung
niederschlagsdatenbank
niederschlagsstationen
- derzeit 112 Stationen
niederschlagsdatenbank
niederschlagsstationen
- kartographische Darstellung
 
  treffpunkt & service
--- Anzeigen --------------------------------
zugriffe:
insgesamt: 46.624.055
aktueller monat: 1.244
heute: 1.244
momentan online: 58
 
 
monatshöchstwert: 653.625
vorheriger monat: 364.213
gestern: 13.565
tageshöchstwert: 57.073
 
wetterwarte süd
 
konradstraße 3
info@wetterwarte-sued.com
roland roth
 
88427 bad schussenried